When you browse on this site, cookies collect data to enhance your experience and personalize the content and advertising you see.
Visit our Privacy Policy to learn more. By continuing to use the site, you agree to this use of cookies and data.
EN

Hourly Weather Noordwijk

Today, 7 August, Friday

Time Temperature Precipitation Wind Pressure Humidity
00:00 +22°C° 0 mm 3 mps 764 mmHg 71%
01:00 +21°C° 0 mm 3 mps 764 mmHg 69%
02:00 +21°C° 0 mm 3 mps 764 mmHg 67%
03:00 +21°C° 0 mm 3 mps 764 mmHg 64%
04:00 +21°C° 0 mm 2 mps 764 mmHg 63%
05:00 +23°C° 0 mm 2 mps 764 mmHg 62%
06:00 +23°C° 0 mm 2 mps 764 mmHg 61%
07:00 +25°C° 0 mm 2 mps 764 mmHg 55%
08:00 +28°C° 0 mm 1 mps 764 mmHg 49%
09:00 +30°C° 0 mm 1 mps 764 mmHg 43%
10:00 +31°C° 0 mm 1 mps 764 mmHg 40%
11:00 +32°C° 0 mm 1 mps 764 mmHg 37%
12:00 +33°C° 0 mm 1 mps 764 mmHg 34%
13:00 +33°C° 0 mm 1 mps 764 mmHg 34%
14:00 +34°C° 0 mm 1 mps 764 mmHg 34%
15:00 +35°C° 0 mm 2 mps 764 mmHg 34%
16:00 +34°C° 0 mm 2 mps 764 mmHg 37%
17:00 +32°C° 0 mm 2 mps 763 mmHg 41%
18:00 +31°C° 0 mm 2 mps 763 mmHg 45%
19:00 +29°C° 0 mm 2 mps 763 mmHg 47%
20:00 +28°C° 0 mm 2 mps 763 mmHg 50%
21:00 +26°C° 0 mm 2 mps 763 mmHg 53%
22:00 +26°C° 0 mm 2 mps 764 mmHg 55%
23:00 +25°C° 0 mm 2 mps 764 mmHg 57%

Tomorrow, 8 August, Saturday

Time Temperature Precipitation Wind Pressure Humidity
00:00 +25°C° 0 mm 2 mps 764 mmHg 58%
01:00 +24°C° 0 mm 2 mps 764 mmHg 58%
02:00 +24°C° 0 mm 2 mps 764 mmHg 58%
03:00 +23°C° 0 mm 2 mps 763 mmHg 58%
04:00 +24°C° 0 mm 2 mps 764 mmHg 58%
05:00 +24°C° 0 mm 2 mps 764 mmHg 58%
06:00 +25°C° 0 mm 2 mps 764 mmHg 58%
07:00 +27°C° 0 mm 2 mps 764 mmHg 53%
08:00 +29°C° 0 mm 1 mps 764 mmHg 48%
09:00 +30°C° 0 mm 1 mps 764 mmHg 43%
10:00 +32°C° 0 mm 1 mps 764 mmHg 40%
11:00 +34°C° 0 mm 2 mps 764 mmHg 38%
12:00 +35°C° 0 mm 2 mps 764 mmHg 35%
13:00 +35°C° 0 mm 2 mps 764 mmHg 35%
14:00 +35°C° 0 mm 3 mps 764 mmHg 34%
15:00 +35°C° 0 mm 3 mps 764 mmHg 34%
16:00 +34°C° 0 mm 4 mps 764 mmHg 39%
17:00 +32°C° 0 mm 4 mps 764 mmHg 44%
18:00 +30°C° 0 mm 4 mps 764 mmHg 49%
19:00 +29°C° 0 mm 4 mps 764 mmHg 53%
20:00 +28°C° 0 mm 5 mps 764 mmHg 58%
21:00 +26°C° 0 mm 5 mps 764 mmHg 63%
22:00 +26°C° 0 mm 5 mps 764 mmHg 67%
23:00 +25°C° 0 mm 4 mps 763 mmHg 71%

Day after tomorrow, 9 August, Sunday

Time Temperature Precipitation Wind Pressure Humidity
00:00 +25°C° 0 mm 4 mps 763 mmHg 75%
01:00 +23°C° 0 mm 4 mps 763 mmHg 75%
02:00 +23°C° 0 mm 4 mps 763 mmHg 76%
03:00 +23°C° 0 mm 4 mps 763 mmHg 77%
04:00 +23°C° 0 mm 4 mps 763 mmHg 76%
05:00 +23°C° 0 mm 4 mps 763 mmHg 75%
06:00 +23°C° 0 mm 4 mps 763 mmHg 75%
07:00 +26°C° 0 mm 3 mps 763 mmHg 69%
08:00 +28°C° 0 mm 3 mps 763 mmHg 64%
09:00 +29°C° 0 mm 3 mps 763 mmHg 59%
10:00 +31°C° 0 mm 3 mps 763 mmHg 54%
11:00 +33°C° 0 mm 3 mps 762 mmHg 49%
12:00 +34°C° 0 mm 3 mps 762 mmHg 45%
13:00 +35°C° 0 mm 3 mps 762 mmHg 43%
14:00 +35°C° 0 mm 3 mps 761 mmHg 41%
15:00 +35°C° 0 mm 3 mps 761 mmHg 40%
16:00 +35°C° 0 mm 3 mps 761 mmHg 43%
17:00 +34°C° 0 mm 3 mps 761 mmHg 46%
18:00 +33°C° 0 mm 3 mps 761 mmHg 49%
19:00 +32°C° 0 mm 4 mps 761 mmHg 52%
20:00 +30°C° 0 mm 5 mps 761 mmHg 55%
21:00 +29°C° 0 mm 6 mps 761 mmHg 58%
22:00 +28°C° 0 mm 5 mps 761 mmHg 59%
23:00 +27°C° 0 mm 5 mps 761 mmHg 60%

10 August, Monday

Time Temperature Precipitation Wind Pressure Humidity
00:00 +27°C° 0 mm 4 mps 761 mmHg 62%
01:00 +26°C° 0 mm 4 mps 760 mmHg 63%
02:00 +26°C° 0 mm 4 mps 760 mmHg 65%
03:00 +25°C° 0 mm 4 mps 760 mmHg 66%
04:00 +25°C° 0 mm 4 mps 760 mmHg 66%
05:00 +25°C° 0 mm 3 mps 760 mmHg 65%
06:00 +26°C° 0 mm 3 mps 760 mmHg 65%
07:00 +27°C° 0 mm 3 mps 760 mmHg 61%
08:00 +29°C° 0 mm 3 mps 760 mmHg 57%
09:00 +30°C° 0 mm 3 mps 760 mmHg 53%
10:00 +33°C° 0 mm 3 mps 760 mmHg 49%
11:00 +34°C° 0 mm 3 mps 760 mmHg 44%
12:00 +35°C° 0 mm 2 mps 760 mmHg 40%
13:00 +35°C° 0 mm 2 mps 760 mmHg 39%
14:00 +36°C° 0 mm 3 mps 760 mmHg 38%
15:00 +36°C° 0 mm 3 mps 760 mmHg 36%
16:00 +35°C° 0.1 mm 3 mps 760 mmHg 39%
17:00 +34°C° 0.1 mm 3 mps 760 mmHg 42%
18:00 +33°C° 0.1 mm 4 mps 760 mmHg 45%
19:00 +32°C° 0.1 mm 4 mps 760 mmHg 48%
20:00 +30°C° 0.1 mm 4 mps 760 mmHg 52%
21:00 +29°C° 0.1 mm 4 mps 760 mmHg 55%
22:00 +28°C° 0 mm 4 mps 760 mmHg 58%
23:00 +27°C° 0 mm 4 mps 760 mmHg 60%

11 August, Tuesday

Time Temperature Precipitation Wind Pressure Humidity
00:00 +27°C° 0 mm 3 mps 760 mmHg 62%
01:00 +26°C° 0.3 mm 3 mps 760 mmHg 64%
02:00 +26°C° 0.3 mm 3 mps 760 mmHg 65%
03:00 +26°C° 0.3 mm 3 mps 760 mmHg 66%
04:00 +26°C° 0.1 mm 3 mps 760 mmHg 66%
05:00 +26°C° 0.1 mm 3 mps 760 mmHg 66%
06:00 +26°C° 0.1 mm 3 mps 760 mmHg 66%
07:00 +27°C° 0 mm 3 mps 760 mmHg 63%
08:00 +28°C° 0 mm 2 mps 760 mmHg 59%
09:00 +29°C° 0 mm 2 mps 760 mmHg 56%
10:00 +31°C° 0 mm 2 mps 760 mmHg 51%
11:00 +32°C° 0 mm 2 mps 760 mmHg 47%
12:00 +35°C° 0 mm 2 mps 760 mmHg 42%
13:00 +35°C° 0.1 mm 3 mps 760 mmHg 42%
14:00 +35°C° 0.1 mm 3 mps 760 mmHg 42%
15:00 +35°C° 0.1 mm 3 mps 760 mmHg 42%
16:00 +33°C° 0.4 mm 3 mps 760 mmHg 48%
17:00 +30°C° 0.4 mm 4 mps 760 mmHg 54%
18:00 +29°C° 0.4 mm 4 mps 760 mmHg 60%
19:00 +28°C° 0.5 mm 4 mps 760 mmHg 64%
20:00 +26°C° 0.5 mm 4 mps 761 mmHg 67%
21:00 +25°C° 0.5 mm 3 mps 761 mmHg 71%
22:00 +25°C° 0.6 mm 3 mps 761 mmHg 73%
23:00 +25°C° 0.6 mm 3 mps 761 mmHg 75%

12 August, Wednesday

Time Temperature Precipitation Wind Pressure Humidity
00:00 +24°C° 0.6 mm 3 mps 761 mmHg 77%
01:00 +23°C° 0.5 mm 4 mps 761 mmHg 78%
02:00 +23°C° 0.5 mm 4 mps 761 mmHg 80%
03:00 +23°C° 0.5 mm 4 mps 760 mmHg 81%
04:00 +23°C° 0.2 mm 4 mps 761 mmHg 81%
05:00 +23°C° 0.2 mm 4 mps 761 mmHg 81%
06:00 +23°C° 0.2 mm 4 mps 761 mmHg 82%
07:00 +23°C° 0.3 mm 4 mps 761 mmHg 79%
08:00 +25°C° 0.3 mm 4 mps 761 mmHg 75%
09:00 +26°C° 0.3 mm 5 mps 761 mmHg 72%
10:00 +27°C° 0 mm 5 mps 761 mmHg 69%
11:00 +28°C° 0 mm 5 mps 761 mmHg 66%
12:00 +28°C° 0 mm 5 mps 761 mmHg 63%
13:00 +28°C° 0 mm 6 mps 761 mmHg 64%
14:00 +27°C° 0 mm 6 mps 761 mmHg 66%
15:00 +27°C° 0 mm 6 mps 761 mmHg 67%
16:00 +26°C° 0 mm 6 mps 761 mmHg 71%
17:00 +24°C° 0 mm 7 mps 761 mmHg 75%
18:00 +23°C° 0 mm 7 mps 761 mmHg 78%
19:00 +22°C° 0 mm 6 mps 761 mmHg 81%
20:00 +21°C° 0 mm 6 mps 761 mmHg 84%
21:00 +20°C° 0 mm 6 mps 761 mmHg 86%
22:00 +20°C° 0 mm 6 mps 761 mmHg 87%
23:00 +20°C° 0 mm 6 mps 761 mmHg 88%
Show more